Location: Krasnoyarskiy Pitomnik
(51.1333°N, 71.6167°E)
Time: 22:45:25
(UTC+00:00)

A-11 Canister half - Pass Details

Date: 13 April 2024
Orbit: 1514 x 1685 km, 47.2° (Epoch: 18 May)

Event Time Altitude Azimuth Distance (km) Brightness Sun altitude
Rises 16:14:33 0° 283° (WNW) 4,855 12.7 -18.2°
Reaches altitude 10° 16:20:56 10° 253° (WSW) 3,902 11.5 -18.9°
Maximum altitude 16:23:33 11° 238° (WSW) 3,808 11.2 -19.2°
Drops below altitude 10° 16:26:11 10° 222° (SW) 3,922 11.1 -19.5°
Sets 16:32:43 0° 192° (SSW) 4,923 11.3 -20.2°
